[Date Prev][Date Next][Thread Prev][Thread Next] - [Date Index][Thread Index][Author Index]

2 Line ISS Keps 11-24



ISS 
1 25544U 98067A   05327.99455096  .00010769  00000-0  83501-4 0  8122
2 25544 051.6434 161.8570 0008344 320.9101 201.6920 15.72428174400834
----
Via the sarex mailing list at AMSAT.ORG courtesy of AMSAT-NA.
To unsubscribe, send "unsubscribe sarex" to Majordomo@amsat.org



AMSAT Top AMSAT Home